Location: Aula-Vintri
(58.3875°N, 22.4322°E)
Time: 07:05:34
(UTC+00:00)

STARLINK-43 - Pass Details

Date: 13 October 2019
Orbit: 478 x 480 km, 53.0° (Epoch: 17 November)

Event Time Altitude Azimuth Distance (km) Brightness Sun altitude
Rises 17:22:56 0° 240° (WSW) 2,534 7.8 -15.4°
Reaches altitude 10° 17:25:14 10° 230° (SW) 1,657 6.6 -15.6°
Maximum altitude 17:28:35 31° 167° (SSE) 858 4.4 -16.1°
Enters shadow 17:29:24 28° 141° (SE) 926 4.3 -16.2°
